This is the latest recevied weather packets stored in our database for station/object VU3ZAG-13. If no packets are shown the sender has not sent any weather packets the latest 1 day(s).
| Time | Temp. | Humidity | Pressure | Rain* | Wind** | Luminosity | Snow |
|---|---|---|---|---|---|---|---|
| 1778010645 | 31.11° C | 54% | - | 0 mm | 1.79 m/s, 268° | - | - |
| 1778010336 | 31.11° C | 53% | - | 0 mm | 2.68 m/s, 281° | - | - |
| 1778010027 | 31.11° C | 54% | - | 0 mm | 1.34 m/s, 296° | - | - |
| 1778009718 | 31.11° C | 53% | - | 0 mm | 2.24 m/s, 266° | - | - |
| 1778009410 | 31.11° C | 54% | - | 0 mm | 1.79 m/s, 300° | - | - |
| 1778009101 | 31.11° C | 54% | - | 0 mm | 2.24 m/s, 276° | - | - |
| 1778008788 | 31.11° C | 53% | - | 0 mm | 1.79 m/s, 292° | - | - |
| 1778008480 | 31.11° C | 53% | - | 0 mm | 1.79 m/s, 284° | - | - |
| 1778008171 | 31.11° C | 53% | - | 0 mm | 1.34 m/s, 292° | - | - |
| 1778007862 | 31.11° C | 53% | - | 0 mm | 1.34 m/s, 282° | - | - |
| 1778007553 | 31.11° C | 53% | - | 0 mm | 2.24 m/s, 277° | - | - |
| 1778007245 | 31.11° C | 53% | - | 0 mm | 1.34 m/s, 279° | - | - |
| 1778006936 | 31.11° C | 53% | - | 0 mm | 1.34 m/s, 277° | - | - |
| 1778006628 | 31.11° C | 53% | - | 0 mm | 1.34 m/s, 289° | - | - |
| 1778006319 | 31.11° C | 52% | - | 0 mm | 2.24 m/s, 311° | - | - |
| 1778006010 | 31.67° C | 52% | - | 0 mm | 2.68 m/s, 260° | - | - |
| 1778005701 | 31.67° C | 52% | - | 0 mm | 1.34 m/s, 290° | - | - |
| 1778005392 | 31.67° C | 52% | - | 0 mm | 2.24 m/s, 275° | - | - |
| 1778005083 | 31.67° C | 52% | - | 0 mm | 1.34 m/s, 286° | - | - |
| 1778004775 | 31.67° C | 52% | - | 0 mm | 2.24 m/s, 268° | - | - |
| 1778004466 | 31.67° C | 52% | - | 0 mm | 1.79 m/s, 282° | - | - |
| 1778004158 | 31.67° C | 51% | - | 0 mm | 1.34 m/s, 336° | - | - |
| 1778003849 | 31.67° C | 51% | - | 0 mm | 0.89 m/s, 296° | - | - |
| 1778003540 | 31.67° C | 51% | - | 0 mm | 1.79 m/s, 286° | - | - |
| 1778003231 | 31.67° C | 50% | - | 0 mm | 1.79 m/s, 287° | - | - |
* Rain since midnight (hover to see other rain measurements)
** Current wind speed in m/s (hover to see current wind gust speed)